Location: Katowice
(50.2611°N, 19.0242°E)
Time: 19:00:59
(UTC+02:00)

Explorer 7 - Pass Details

Date: 30 August 2019
Orbit: 485 x 680 km, 50.3° (Epoch: 18 October)

Event Time Altitude Azimuth Distance (km) Brightness Sun altitude
Rises 13:49:24 0° 284° (WNW) 2,936 10.6 46.6°
Reaches altitude 10° 13:52:24 10° 265° (W) 1,986 10.1 46.4°
Maximum altitude 13:55:26 18° 223° (SW) 1,494 10.2 46.2°
Drops below altitude 10° 13:58:22 10° 180° (S) 1,893 10.4 46.0°
Sets 14:01:08 0° 161° (SSE) 2,745 10.8 45.8°
